User: anonymous   Login
Location: Camp Creek
(33.9000°N, 111.8167°W)
Time: 02:29:34
(UTC-07:00)
Language:

DELTA 2 R/B (1) - Orbit

View from above orbital plane
View from above orbital plane
View from above satellite
View from above satellite

Ground track
Ground track

The orbit data is extracted from the following two-line orbital elements,

1 27665U 03005C   15108.55818041  .00000088  00000-0  68737-4 0  9992
2 27665 039.5748 175.6900 0008149 174.5613 322.5107 14.28323692637850
Epoch (UTC): 18 April 2015 13:23:46
Eccentricity: 0.0008149
inclination: 39.5748°
perigee height: 791 km
apogee height: 803 km
right ascension of ascending node: 175.6900°
argument of perigee: 174.5613°
revolutions per day: 14.28323692
mean anomaly at epoch: 322.5107°
orbit number at epoch: 63785

The dashed part of the orbit path shows where the satellite is in the earth's shadow,  

DLR